Mount Holly, NJ

8:20 AM EST on December 06, 2019 (GMT -0500)
South Jersey Regional

Weather History for KVAY - November, 2019

Change the Weather History Date:

Friday, November 15, 2019

  Actual Average (KPNE) Record (KPNE)
Temperature  
Mean Temperature 40 °F -  
Max Temperature 53 °F 52 °F 73 °F (2008)
Min Temperature 28 °F 34 °F 24 °F (1996)
Degree Days  
Heating Degree Days 24    
Moisture  
Dew Point 25 °F    
Average Humidity 59    
Maximum Humidity 89    
Minimum Humidity 31    
Precipitation  
Precipitation 0.00 in - - ()
Sea Level Pressure  
Sea Level Pressure 30.23 in    
Wind  
Wind Speed 2 mph (WNW)    
Max Wind Speed 13 mph    
Max Gust Speed -    
Visibility 10 miles    
Events      
Averages and records for this station are not official NWS values.
T = Trace of Precipitation, MM = Missing Value Source: NWS Daily Summary

Daily Weather History Graph

Daily Weather History Graph

Search for Another Location

Airport or City:

Astronomy

Nov. 15, 2019 Rise Set
Actual Time 6:44 AM EST 4:43 PM EST
Civil Twilight 6:15 AM EST 5:12 PM EST
Nautical Twilight 5:42 AM EST 5:45 PM EST
Astronomical Twilight 5:10 AM EST 6:17 PM EST
Moon 7:16 PM EST (11/15) 9:38 AM EST (11/15)
Length of Visible Light 10h 57m
Length of Day
9h 59m
Waning Gibbous, 90% of the Moon is Illuminated
Nov 15
Waning Gibbous
Nov 19
Last Quarter
Nov 26
New
Dec 4
First Quarter
Dec 12
Full

Hourly Weather History & Observations

Time (EST) Temp. Windchill Dew Point Humidity Pressure Visibility Wind Dir Wind Speed Gust Speed Precip Events Conditions
12:54 AM 28.9 °F - 25.0 °F 85% 30.30 in 10.0 mi Calm Calm - N/A   Clear
1:54 AM 30.0 °F - 26.1 °F 85% 30.28 in 10.0 mi Calm Calm - N/A   Mostly Cloudy
2:54 AM 32.0 °F - 28.0 °F 85% 30.27 in 10.0 mi Calm Calm - N/A   Overcast
3:54 AM 33.1 °F - 30.0 °F 89% 30.27 in 10.0 mi Calm Calm - N/A   Overcast
4:54 AM 33.1 °F - 30.0 °F 89% 30.27 in 10.0 mi Calm Calm - N/A   Overcast
5:54 AM 30.9 °F - 28.0 °F 89% 30.27 in 10.0 mi Calm Calm - N/A   Overcast
6:54 AM 30.0 °F - 27.0 °F 88% 30.27 in 10.0 mi Calm Calm - N/A   Partly Cloudy
7:54 AM 33.1 °F - 28.9 °F 85% 30.29 in 10.0 mi Calm Calm - N/A   Clear
8:54 AM 39.9 °F 37.8 °F 24.1 °F 53% 30.29 in 10.0 mi West 3.5 mph - N/A   Clear
9:54 AM 45.0 °F 42.6 °F 25.0 °F 46% 30.28 in 10.0 mi West 4.6 mph - N/A   Clear
10:54 AM 48.9 °F - 23.0 °F 36% 30.26 in 10.0 mi West 8.1 mph - N/A   Clear
11:54 AM 50.0 °F - 23.0 °F 35% 30.22 in 10.0 mi West 4.6 mph - N/A   Clear
12:54 PM 52.0 °F - 24.1 °F 34% 30.19 in 10.0 mi NW 8.1 mph - N/A   Clear
1:54 PM 53.1 °F - 24.1 °F 32% 30.17 in 10.0 mi West 10.4 mph - N/A   Clear
2:54 PM 52.0 °F - 21.9 °F 31% 30.17 in 10.0 mi Variable 4.6 mph - N/A   Clear
3:54 PM 51.1 °F - 24.1 °F 35% 30.17 in 10.0 mi West 5.8 mph - N/A   Clear
4:54 PM 46.9 °F - 23.0 °F 39% 30.17 in 10.0 mi West 3.5 mph - N/A   Clear
5:54 PM 46.0 °F 44.8 °F 23.0 °F 40% 30.19 in 10.0 mi West 3.5 mph - N/A   Clear
6:54 PM 46.0 °F 44.8 °F 24.1 °F 42% 30.18 in 10.0 mi WNW 3.5 mph - N/A   Clear
7:54 PM 42.1 °F - 25.0 °F 51% 30.19 in 10.0 mi Calm Calm - N/A   Clear
8:54 PM 36.0 °F - 25.0 °F 64% 30.21 in 10.0 mi Calm Calm - N/A   Clear
9:54 PM 37.0 °F 34.5 °F 26.1 °F 65% 30.22 in 10.0 mi NNW 3.5 mph - N/A   Clear
10:54 PM 42.1 °F 35.2 °F 25.0 °F 51% 30.24 in 10.0 mi North 12.7 mph - N/A   Clear
11:54 PM 39.9 °F 33.9 °F 27.0 °F 60% 30.24 in 10.0 mi North 9.2 mph - N/A   Clear